Location: Unspecified
(40.7945°N, 0.0000°E)
Time: 19:41:53
(UTC+00:00)

TIGRISAT - Pass Details

Date: 01 September 2019
Orbit: 604 x 690 km, 97.7° (Epoch: 19 October)

Event Time Altitude Azimuth Distance (km) Brightness Sun altitude
Rises 20:20:49 0° 20° (NNE) 2,986 ? -19.8°
Reaches altitude 10° 20:23:13 10° 29° (NNE) 2,055 ? -20.2°
Enters shadow 20:26:07 31° 61° (ENE) 1,135 ? -20.7°
